Wind_Speed
44 45 46 46 47 47 48 50 51 51 52 53 54 55 56 56 57 57 58 58 57 56 55 55 55 55 54 54 55 56 55 55 55 53 53 53 53 53 53 53 52 51 51
42 44 45 46 46 46 47 48 50 51 51 52 53 53 55 56 57 57 58 58 57 57 56 56 56 56 56 55 56 57 57 57 57 56 55 55 54 54 53 53 53 53 53
41 42 44 45 45 46 46 47 48 50 51 52 53 53 53 54 56 57 58 58 57 57 57 57 56 57 57 57 57 59 59 58 58 58 56 56 55 55 55 55 55 54 54
38 40 42 43 45 46 47 47 48 50 51 51 52 53 53 54 55 56 57 58 58 59 58 58 58 58 57 58 59 59 59 58 58 58 57 56 56 56 56 55 55 55 54
37 39 40 41 43 45 46 47 48 49 51 52 53 52 52 53 54 55 56 57 58 58 58 58 58 59 59 59 59 58 58 58 58 59 58 57 56 56 56 56 56 56 56
38 38 39 41 42 44 45 46 47 48 50 52 53 53 53 53 53 54 56 57 58 57 56 56 57 58 59 59 59 58 58 58 58 58 58 57 57 56 56 56 56 57 56
39 39 40 41 42 43 44 45 45 47 48 50 52 53 53 53 54 54 55 55 56 56 56 55 56 56 57 58 58 58 58 58 58 57 57 56 57 57 57 57 57 57 56
39 40 40 41 41 42 43 43 44 45 45 47 49 51 52 53 52 53 54 54 54 54 54 54 55 55 56 56 56 57 56 56 57 57 56 56 56 57 57 57 57 57 56
38 39 39 40 40 41 41 42 42 43 45 45 47 48 49 50 51 51 51 51 52 52 52 51 52 53 54 54 55 55 55 55 56 56 57 56 56 57 57 57 57 56 56
38 38 39 39 39 40 40 41 42 42 43 44 45 46 47 48 49 49 48 49 49 49 50 51 51 52 52 53 53 54 53 54 55 55 56 56 55 56 56 56 56 56 56
38 38 38 38 39 39 40 41 42 42 43 43 44 44 44 46 46 46 47 48 48 49 49 49 49 50 51 52 52 52 52 53 53 54 54 54 54 54 55 55 56 56 56
39 39 39 39 39 39 40 40 41 41 42 42 42 42 43 44 44 45 46 47 47 48 48 49 49 50 50 51 52 52 52 53 53 53 53 53 54 54 54 54 55 56 56
38 38 39 39 39 39 39 39 40 41 41 41 41 41 42 42 43 44 46 47 47 47 47 48 49 50 50 50 51 51 52 53 53 53 52 53 53 54 54 54 55 55 54
36 37 37 38 38 38 38 38 39 40 40 40 40 40 41 42 43 44 45 47 47 47 47 47 48 48 49 49 49 50 51 52 52 52 52 51 52 52 53 54 54 54 54
34 35 35 35 36 35 36 36 36 37 39 39 40 41 41 41 42 43 44 46 46 46 46 46 46 47 47 48 48 48 48 49 49 50 50 50 50 51 52 52 53 53 54
32 33 33 33 34 34 34 35 35 35 37 38 39 40 41 41 41 41 42 43 44 44 44 45 45 46 46 47 47 47 47 47 48 48 48 48 48 49 50 51 51 52 52
31 32 32 32 33 33 34 34 34 35 35 37 38 39 40 40 41 41 41 41 42 43 43 43 44 44 45 45 46 46 46 47 47 47 47 47 48 48 48 49 50 50 50
31 32 31 31 31 32 33 33 34 35 35 35 36 37 38 39 40 40 40 40 41 41 42 42 43 43 44 44 45 45 45 45 46 46 46 47 47 47 47 47 47 48 49
31 31 30 31 31 31 31 32 32 33 33 34 35 36 36 37 37 37 38 38 39 39 40 41 41 42 42 42 43 43 43 43 44 45 46 46 46 46 46 45 46 47 47
30 30 30 29 29 30 30 30 30 30 31 31 32 33 34 34 35 35 35 36 36 37 37 38 38 39 39 40 40 41 41 42 42 43 43 44 44 44 44 44 45 45 46
28 28 28 28 28 28 28 29 29 29 29 29 30 31 31 32 32 32 33 33 33 34 34 35 35 36 36 37 38 38 39 39 39 39 39 40 41 41 42 42 43 43 43
26 26 26 26 26 26 27 27 27 27 27 27 28 28 28 29 30 30 31 31 32 32 33 33 34 34 35 35 36 36 37 37 38 38 39 39 39 39 40 40 41 41 42
23 24 24 24 24 24 25 25 25 26 26 26 26 27 27 27 28 29 29 30 31 32 32 33 33 33 33 34 34 35 36 36 37 38 38 38 38 38 38 39 40 40 40
22 22 22 23 23 23 23 23 24 24 24 24 25 25 26 26 26 26 27 28 29 30 30 31 31 32 32 32 33 33 34 35 36 36 37 37 37 37 37 37 38 38 39
21 21 22 22 22 22 22 22 22 22 22 23 23 24 24 24 24 25 25 26 26 27 27 28 29 30 30 30 31 31 32 33 34 34 35 35 35 35 35 35 36 37 37
21 22 22 22 22 22 21 21 21 21 22 22 22 23 23 23 23 23 23 23 23 24 25 25 26 27 28 28 29 30 31 31 32 33 33 34 34 33 33 34 34 34 34
Wind_Direction
257 257 257 257 256 256 256 255 254 253 254 255 255 254 254 254 254 254 255 255 256 256 257 257 257 257 256 256 256 256 258 259 259 259 258 258 258 259 261 261 261 263 263
260 258 257 257 257 257 257 256 255 254 254 255 255 256 255 255 256 255 255 255 256 256 256 256 257 256 255 256 256 257 258 259 259 259 259 259 259 260 261 262 262 262 263
263 261 259 258 257 257 258 258 257 255 255 255 256 256 256 255 256 256 255 255 255 255 255 255 256 255 255 256 256 256 257 259 259 259 259 259 260 260 261 262 262 262 263
266 265 263 261 259 258 259 259 258 257 255 256 256 256 256 256 256 256 255 254 254 254 255 255 255 255 255 256 257 256 257 258 258 258 259 260 260 260 261 261 261 262 263
269 267 265 263 262 261 260 260 259 258 257 256 256 256 256 257 257 257 255 255 255 255 255 255 255 255 255 256 257 257 257 257 258 258 259 259 260 260 261 261 261 262 263
272 270 267 264 263 262 261 261 260 259 258 257 256 257 257 258 258 258 257 256 255 254 255 255 255 254 255 256 255 256 257 257 257 258 259 260 259 260 260 260 261 262 262
272 271 269 267 265 263 262 261 260 260 259 258 258 258 258 258 258 258 258 257 256 255 255 255 255 254 254 254 255 256 257 257 257 258 258 259 259 258 259 260 261 262 262
273 272 270 269 267 264 263 262 262 261 260 260 259 258 257 257 257 257 257 257 257 256 256 256 256 255 254 255 255 256 257 257 256 257 258 258 258 258 258 259 261 262 262
276 275 273 270 268 265 263 262 262 261 261 261 261 260 258 257 257 258 258 256 256 255 255 256 256 255 255 255 255 256 256 256 256 256 258 258 258 258 259 260 260 261 262
278 276 273 271 268 266 264 263 262 262 263 262 262 260 258 257 258 258 256 255 255 256 256 256 256 256 256 255 255 256 256 256 256 256 257 258 258 259 260 261 262 262 263
278 276 273 271 269 267 266 264 263 263 262 262 261 260 259 258 257 258 257 256 256 256 256 256 256 256 256 256 256 255 256 256 256 256 257 258 258 260 261 262 263 263 264
277 276 274 272 270 268 267 265 264 264 263 262 261 260 260 259 258 257 257 257 257 257 257 257 257 256 256 256 256 255 256 257 257 258 258 259 259 261 262 263 263 263 264
278 275 273 272 271 270 268 266 265 264 263 262 261 261 259 260 260 260 259 258 257 257 257 257 257 257 257 257 256 255 256 257 258 258 259 259 260 261 262 262 263 264 263
278 275 273 271 270 269 268 267 265 263 262 262 263 263 262 262 262 262 260 258 257 257 257 257 257 257 257 256 256 256 256 256 257 258 259 259 259 260 261 262 263 263 263
279 276 274 273 271 269 268 267 265 263 263 263 263 264 264 264 263 263 262 260 259 259 258 258 257 257 257 257 257 257 257 256 256 257 258 259 259 260 261 262 263 262 263
281 277 275 274 273 270 268 267 266 266 265 265 264 264 264 263 263 262 262 261 260 260 259 258 257 257 257 257 257 257 257 256 256 256 258 259 260 261 262 263 263 263 263
282 280 277 275 273 271 269 269 269 268 268 267 266 265 265 264 263 262 261 261 260 260 259 258 258 257 257 257 257 258 258 257 257 257 258 260 261 262 263 263 263 263 263
283 281 279 277 275 273 272 272 272 271 270 269 269 268 267 266 265 263 262 262 262 261 261 260 258 257 257 257 257 257 258 258 258 258 259 261 262 263 263 264 264 264 263
285 283 280 278 276 275 274 274 274 274 273 271 270 270 270 268 267 265 264 264 263 262 261 260 259 258 258 258 258 258 258 259 259 259 260 261 262 263 263 263 264 264 264
287 284 281 279 276 276 275 275 275 275 275 274 273 271 271 269 267 266 265 265 264 262 261 260 260 260 259 260 260 259 260 260 261 261 262 262 262 263 263 264 264 264 265
287 284 283 281 279 277 276 275 275 275 276 275 274 273 272 269 267 266 265 265 265 263 261 261 260 261 261 261 260 260 261 261 261 261 262 263 263 264 264 265 265 265 266
287 285 284 283 282 280 278 276 276 275 275 275 274 273 273 270 269 267 266 265 265 264 263 262 262 262 262 262 261 262 262 262 262 262 262 263 264 265 266 266 267 267 267
287 286 285 285 285 283 281 279 278 277 276 275 274 274 273 272 270 269 267 266 265 265 264 264 264 264 264 263 263 263 262 262 262 262 262 262 264 266 268 268 268 269 269
287 286 286 286 286 286 284 281 280 278 277 276 276 275 274 273 272 271 270 269 267 266 265 264 264 264 264 264 264 264 264 264 264 263 263 264 264 266 267 268 269 269 270
286 286 286 286 286 286 286 284 282 280 278 277 277 275 275 275 274 274 274 273 271 268 267 265 265 266 264 264 265 266 266 266 265 265 264 265 265 267 267 269 270 271 271
286 287 288 288 287 286 286 285 284 282 280 279 278 276 275 276 276 276 275 275 272 270 269 267 267 267 266 266 268 269 269 268 267 267 267 266 267 268 269 271 272 272 272
Height
5590 5591 5592 5592 5593 5595 5596 5598 5600 5602 5604 5606 5608 5610 5612 5614 5616 5618 5621 5623 5625 5627 5629 5631 5633 5635 5637 5640 5641 5643 5645 5647 5650 5653 5654 5656 5657 5658 5659 5661 5663 5663 5664
5577 5578 5578 5579 5580 5582 5583 5584 5586 5588 5590 5592 5594 5596 5597 5599 5601 5603 5605 5607 5610 5612 5614 5617 5619 5620 5623 5625 5627 5629 5631 5633 5635 5638 5640 5642 5643 5644 5646 5647 5648 5649 5650
5565 5565 5565 5566 5567 5568 5569 5571 5572 5574 5576 5578 5580 5581 5583 5584 5586 5588 5590 5592 5594 5597 5599 5601 5604 5606 5608 5610 5612 5614 5616 5618 5620 5623 5625 5627 5628 5629 5631 5632 5633 5635 5635
5553 5553 5553 5553 5554 5555 5556 5557 5558 5560 5562 5564 5565 5567 5568 5570 5571 5572 5574 5576 5578 5581 5583 5585 5588 5590 5592 5594 5597 5599 5601 5603 5605 5607 5610 5612 5614 5615 5616 5618 5619 5620 5621
5541 5541 5541 5541 5541 5541 5542 5543 5544 5546 5547 5549 5550 5552 5553 5555 5556 5557 5559 5560 5562 5565 5567 5569 5572 5574 5576 5578 5581 5583 5586 5588 5590 5592 5594 5597 5599 5600 5601 5602 5603 5605 5606
5530 5529 5528 5528 5528 5528 5528 5529 5530 5531 5532 5534 5535 5537 5538 5540 5541 5542 5543 5545 5547 5549 5551 5553 5556 5558 5560 5562 5565 5568 5570 5572 5575 5576 5579 5581 5583 5585 5585 5586 5588 5590 5592
5518 5517 5516 5515 5515 5515 5515 5515 5516 5517 5518 5519 5521 5522 5524 5525 5526 5527 5528 5529 5531 5534 5536 5538 5540 5542 5544 5546 5549 5551 5554 5556 5559 5561 5563 5565 5567 5569 5570 5571 5572 5573 5575
5506 5505 5504 5503 5502 5502 5501 5502 5502 5504 5505 5505 5506 5507 5508 5509 5510 5511 5512 5514 5516 5518 5520 5523 5524 5526 5528 5530 5533 5536 5538 5541 5543 5545 5548 5550 5551 5552 5553 5555 5556 5557 5559
5495 5493 5491 5490 5489 5489 5489 5489 5490 5490 5491 5492 5492 5493 5494 5495 5496 5497 5497 5499 5502 5504 5506 5507 5509 5512 5514 5515 5518 5521 5524 5525 5527 5529 5531 5533 5535 5536 5537 5538 5540 5541 5543
5483 5481 5480 5478 5478 5477 5477 5477 5477 5478 5478 5479 5479 5479 5480 5481 5482 5482 5483 5486 5488 5490 5492 5494 5495 5497 5499 5500 5503 5506 5508 5510 5512 5514 5516 5517 5519 5520 5521 5523 5524 5526 5527
5472 5470 5468 5467 5466 5466 5465 5465 5465 5465 5466 5466 5466 5466 5466 5467 5468 5469 5470 5472 5474 5476 5478 5479 5481 5483 5484 5485 5488 5491 5493 5495 5496 5498 5500 5502 5503 5505 5506 5507 5508 5509 5511
5460 5458 5457 5456 5455 5454 5454 5453 5453 5453 5453 5453 5453 5454 5454 5454 5455 5456 5457 5458 5459 5461 5464 5465 5467 5468 5469 5471 5472 5475 5477 5479 5481 5483 5485 5487 5488 5490 5491 5492 5493 5493 5494
5448 5446 5445 5444 5443 5442 5442 5441 5441 5440 5441 5441 5441 5441 5441 5442 5442 5443 5444 5444 5445 5447 5449 5450 5452 5453 5454 5456 5458 5460 5461 5463 5465 5468 5470 5472 5473 5474 5475 5476 5476 5477 5478
5437 5435 5433 5432 5431 5430 5429 5428 5428 5428 5428 5428 5428 5429 5429 5429 5429 5429 5430 5431 5432 5433 5435 5436 5437 5438 5440 5442 5443 5444 5446 5448 5450 5452 5454 5456 5457 5458 5459 5460 5461 5462 5463
5425 5423 5422 5420 5419 5418 5417 5416 5416 5416 5415 5416 5416 5416 5416 5416 5416 5417 5417 5418 5419 5420 5421 5422 5423 5425 5426 5428 5429 5430 5432 5434 5436 5438 5439 5441 5442 5443 5444 5445 5445 5446 5447
5414 5412 5411 5409 5408 5407 5406 5405 5404 5404 5403 5403 5403 5403 5403 5403 5403 5404 5404 5404 5405 5406 5407 5408 5410 5411 5412 5414 5416 5417 5419 5420 5422 5423 5425 5426 5427 5428 5429 5429 5430 5430 5432
5403 5401 5400 5398 5397 5395 5395 5394 5393 5392 5391 5391 5390 5390 5390 5390 5390 5390 5391 5391 5391 5392 5393 5394 5396 5397 5398 5400 5402 5403 5405 5406 5408 5410 5411 5412 5413 5413 5414 5415 5415 5416 5417
5393 5391 5389 5387 5386 5384 5383 5382 5381 5381 5380 5379 5378 5377 5377 5377 5377 5377 5378 5378 5378 5379 5380 5381 5382 5384 5385 5387 5388 5390 5391 5393 5394 5396 5397 5398 5399 5399 5400 5401 5401 5402 5402
5382 5380 5378 5377 5375 5374 5372 5371 5370 5369 5368 5367 5367 5366 5365 5365 5364 5365 5365 5366 5366 5367 5368 5369 5370 5371 5372 5373 5375 5376 5378 5380 5381 5382 5383 5384 5385 5385 5386 5387 5387 5387 5388
5372 5370 5368 5366 5364 5363 5361 5360 5359 5358 5357 5356 5355 5355 5354 5353 5353 5353 5353 5354 5354 5355 5356 5357 5358 5359 5360 5361 5362 5364 5366 5367 5368 5369 5370 5371 5371 5372 5372 5373 5373 5373 5373
5362 5360 5358 5356 5354 5353 5351 5350 5349 5348 5347 5346 5345 5344 5343 5343 5343 5343 5343 5343 5344 5344 5345 5346 5347 5348 5348 5349 5351 5352 5353 5355 5356 5356 5357 5358 5358 5359 5359 5359 5359 5359 5359
5353 5351 5349 5347 5346 5344 5342 5341 5340 5338 5337 5336 5335 5334 5333 5333 5333 5333 5333 5333 5333 5334 5334 5335 5336 5337 5338 5339 5340 5341 5342 5343 5343 5344 5345 5345 5346 5346 5346 5346 5346 5346 5346
5345 5343 5341 5339 5338 5336 5334 5332 5331 5330 5328 5327 5326 5326 5325 5324 5324 5323 5323 5323 5323 5324 5324 5325 5325 5326 5327 5328 5329 5330 5330 5331 5332 5332 5333 5333 5334 5334 5334 5334 5333 5333 5333
5337 5336 5334 5332 5330 5328 5326 5324 5323 5322 5320 5319 5318 5317 5317 5316 5315 5314 5314 5313 5313 5313 5314 5315 5315 5316 5317 5318 5318 5319 5319 5319 5320 5320 5321 5321 5321 5322 5322 5321 5321 5320 5320
5331 5329 5327 5325 5323 5321 5319 5317 5316 5314 5313 5312 5311 5309 5308 5308 5307 5306 5305 5305 5304 5304 5304 5305 5306 5306 5307 5307 5308 5308 5308 5308 5308 5308 5309 5309 5310 5310 5309 5309 5309 5308 5308
5323 5322 5320 5318 5316 5314 5312 5310 5309 5307 5306 5304 5303 5302 5301 5300 5299 5298 5298 5297 5296 5296 5296 5296 5297 5297 5298 5298 5298 5298 5298 5298 5298 5298 5298 5298 5298 5298 5298 5297 5297 5296 5296